Tracking 28790 objects as of 19-Apr-2024
HD Live streaming from Space Station
objects crossing your sky now

FENGYUN 1C DEB

Track FENGYUN 1C DEB now!
10-day predictions


NORAD ID: 30542
Int'l Code: 1999-025AKG
Perigee: 858.9 km
Apogee: 898.7 km
Inclination: 98.9 °
Period: 102.4 minutes
Semi major axis: 7249 km
RCS: 0.0234 m2 (small)
Launch date: May 10, 1999
Source: People's Republic of China (PRC)
Launch site: Taiyaun Space Center, China (TSC)

Note: This is SATELLITE DEBRIS
Your satellite tracking list
Your tracking list is empty




NASA's NSSDC Master Catalog

Two Line Element Set (TLE):
1 30542U 99025AKG 24109.63520618  .00000682  00000-0  43783-3 0  9990
2 30542  98.8547 147.2723 0027469 224.8045 260.6302 14.06423410884392
Source of the keplerian elements: AFSPC